Regional Weather Roundup
Issued by NWS Green Bay, WI

Home | Current Version | Previous Version | Graphics & Text | Print | Product List | Glossary Off
Versions: 1 2 3 4 5 6 7 8 9 10 11 12 13 14 15 16 17 18 19 20 21 22 23 24 25 26 27 28 29 30 31 32 33 34 35 36 37 38 39 40 41 42 43 44 45 46 47 48 49 50

000
ASUS43 KGRB 261559
RWRGRB

NORTH-CENTRAL AND NORTHEAST WISCONSIN REGIONAL WEATHER ROUNDUP
NATIONAL WEATHER SERVICE GREEN BAY WI
1000 AM CST THU FEB 26 2015

WIZ005-009-010>012-018-019-261700-
NORTH CENTRAL WISCONSIN

CITY           SKY/WX    TMP DP  RH WIND       PRES   REMARKS
IRONWOOD       CLOUDY     0  -8  71 N9        30.30S WCI -16
MANITOWISH WTR NOT AVBL
ARBOR VITAE    NOT AVBL
EAGLE RIVER    NOT AVBL
LAND O LAKES   NOT AVBL
RHINELANDER    MOSUNNY    0  -9  65 VRB6      30.26R WCI -12
PHILLIPS       NOT AVBL
ANTIGO         NOT AVBL
TOMAHAWK       NOT AVBL
MERRILL        NOT AVBL
$$

WIZ013-073-261700-
NORTHEAST WISCONSIN

CITY           SKY/WX    TMP DP  RH WIND       PRES   REMARKS
IRON MOUNTAIN  MOSUNNY    1  -9  62 N8        30.27S WCI -13
MARINETTE      MOSUNNY    3  -6  66 N9        30.32S WCI -11
$$

WIZ017-030-035>037-045-261700-
CENTRAL WISCONSIN

CITY           SKY/WX    TMP DP  RH WIND       PRES   REMARKS
MEDFORD        NOT AVBL
WAUSAU         SUNNY      2  -7  66 N5        30.29R WCI  -8
MOSINEE        NOT AVBL
MARSHFIELD     SUNNY      3  -8  60 NW7       30.30S WCI  -9
WISC RAPIDS    SUNNY      5  -7  57 N6        30.34R WCI  -6
STEVENS POINT  NOT AVBL
WAUPACA        NOT AVBL
SHAWANO        NOT AVBL
CLINTONVILLE   SUNNY      5  -6  61 NE6       30.33R WCI  -6
$$

WIZ038-039-048-051-261700-
FOX VALLEY

CITY           SKY/WX    TMP DP  RH WIND       PRES   REMARKS
NWS GREEN BAY  SUNNY      7  -6  55 N13       30.33R WCI  -9
APPLETON       SUNNY      5  -8  56 N10       30.31R WCI -10
OSHKOSH        SUNNY      7  -7  52 NE14      30.31R WCI -10
FOND DU LAC    SUNNY      6  -6  57 N16       30.31R WCI -12
$$

WIZ022-050-052-261700-
EAST CENTRAL WISCONSIN

CITY           SKY/WX    TMP DP  RH WIND       PRES   REMARKS
STURGEON BAY   SUNNY      1  -6  71 N12       30.32S WCI -15
MANITOWOC      NOT AVBL
SHEBOYGAN      SUNNY      8  -7  50 N15G23    30.27S WCI  -9
$$

LMZ563-521-522-541>543-261700-
LAKESHORE

STATION/POSITION TIME  TEMP    WIND        PRES    VSBY  WAVE
                       AIR SEA DIR/SP/G                  HT/PER
                 (UTC) (F)     (DEG/KT/KT) (MB)    (MI)  (FT/S)
SHEBOYGAN LKSHOR 1500    8     360/ 20/ 22 1026.9R
KEWAUNEE LKSHORE 1500    4     340/ 11/ 17 1025.3R
NORTHPORT PIER   1500    2     340/ 13/ 15 1026.4S
SISTER BAY LKSHO 1500    5      10/ 11/ 12   N/A
CHAMBERS ISLAND  1500    4     340/ 11/ 12 1026.8R
MENOMINEE LKSHOR 1500    2     340/  8     1027.6R
$$



USA.gov is the U.S. government's official web portal to all federal, state and local government web resources and services.